Location: Beekmeers
(50.8953°N, 3.6968°E)
Time: 12:57:15
(UTC+00:00)

Lacrosse 5 rocket - Pass Details

Date: 23 May 2024
Orbit: 445 x 572 km, 57.0° (Epoch: 16 June)

Event Time Altitude Azimuth Distance (km) Brightness Sun altitude
Rises 01:18:43 0° 301° (WNW) 2,744 5.0 -15.4°
Reaches altitude 10° 01:21:00 10° 298° (WNW) 1,829 4.0 -15.2°
Maximum altitude 01:25:06 66° 217° (SW) 588 1.2 -14.9°
Drops below altitude 10° 01:29:01 10° 135° (SE) 1,745 3.7 -14.7°
Sets 01:31:10 0° 133° (SE) 2,605 4.6 -14.5°
